Cloud_Cover
5 5 38 78 50 65 11 44 5 90 97 57 100 100 83 93 100 100 100 100 100 100 100 100 100 100 100 99 100 100 100 100
2 5 26 26 8 90 21 5 56 41 83 44 81 91 100 93 82 100 100 100 100 100 100 100 100 100 100 100 100 100 100 100
0 0 0 44 100 5 98 8 35 87 68 99 98 100 100 98 62 62 100 100 100 100 100 100 100 100 99 100 100 100 100 100
5 1 0 64 100 76 34 89 12 8 3 75 44 100 100 78 88 92 100 100 100 100 100 100 100 100 100 100 100 100 97 99
100 100 80 95 99 100 74 100 81 6 45 4 56 100 100 100 100 94 100 100 100 100 100 100 100 100 100 100 100 94 98 100
46 1 5 5 64 100 100 100 100 5 62 9 10 51 100 100 87 90 100 100 100 100 100 60 91 100 100 100 22 76 100 100
72 66 61 14 8 6 33 100 100 64 45 9 5 10 99 100 56 93 100 100 100 100 100 61 58 100 100 100 100 100 100 100
100 100 100 96 97 91 47 14 20 90 88 82 48 5 99 100 100 16 48 100 90 100 100 88 100 100 100 100 100 100 100 100
100 100 100 100 100 100 100 85 60 99 100 100 52 46 100 100 100 98 53 88 94 100 99 76 100 100 100 98 100 100 100 100
100 100 100 100 100 100 100 100 100 100 70 100 99 65 100 100 100 100 100 100 98 100 79 100 100 100 100 100 95 100 100 100
100 100 100 100 100 100 100 100 100 100 100 100 100 85 100 100 100 100 100 100 100 100 100 100 100 100 100 100 100 100 100 99
100 100 100 100 100 100 100 100 100 100 100 100 100 100 100 100 100 100 100 92 100 100 100 100 100 100 100 100 100 100 100 99
100 100 100 100 100 100 100 100 100 100 100 100 100 100 100 100 100 100 100 100 100 100 100 100 100 100 100 100 100 100 100 100
100 100 100 100 100 100 100 100 100 100 100 100 100 100 100 100 100 100 100 100 100 100 100 100 100 100 100 100 100 100 100 100
100 100 100 100 100 100 100 100 100 100 100 100 100 100 100 100 100 100 100 100 100 100 100 100 100 100 100 100 100 100 100 100
100 100 100 100 100 100 100 100 100 100 100 100 100 100 100 100 100 100 100 100 100 100 100 100 100 100 100 100 100 100 100 100
100 100 100 100 100 100 100 100 100 100 100 100 100 100 100 100 100 100 100 100 100 100 100 100 100 100 100 100 100 100 100 100
100 100 100 100 100 100 100 100 100 100 100 100 100 100 100 100 100 100 100 100 100 100 100 100 100 100 100 100 100 100 100 100
100 100 100 100 100 100 100 100 100 100 100 100 100 100 100 100 100 100 100 100 100 100 100 100 100 100 100 100 100 100 100 100